Accueil
METAR-TAF:

METAR-TAF

Aéroports :

Taunton Municipal Airport (King Field)

Taunton, Massachusetts, États-Unis

latitude: 41-52-32N, longitude: 071-01-16W, altitude: 13 m

Observation

Le bulletin a été fait il y a 1 heure et 2 minutes, à 01:52 UTC
Vent calme
Température -7°C
Humidité 86%
Pression 1021 hPa
Visibilité: 8.0 km
Ciel clair
brume

METAR: KTAN 110152Z AUTO 00000KT 5SM BR CLR M07/M09 A3016 RMK AO2 SLP214 I1000 T10721094

Heure: 21:54 (02:54 UTC)


TAF: absent

Observations et prévisions météorologiques de plus de 4000 aéroports (messages METAR et TAF).

Les stations disponibles sont représentées par des disques jaunes et rouges sur la carte.

Passer la souris dessus pour voir le nom de la station.

Cliquer dessus pour voir les observations et prévisions météorologiques.

Pour changer de carte: cliquez sur les boutons verts avec une croix noire pour zoomer, sur le bouton vert avec un tiret pour effectuer un zoom arrière, ou sur les flèches vertes pour les cartes adjacentes.


METAR-TAF: